sat.trackr.live / text

‹ back to catalog

STARLINK-35186

NORAD 65611 · 2025-207V

PAYLOAD ACTIVE UNKNOWN

§ Identity

Operator
Country
US
Launch date
2025-09-13
Launch site
AFWTR
Launch vehicle
Mass (kg)
RCS (m²)

Purposes: comms

External: N2YO · Heavens-Above · Gunter

§ Orbital elements

Epoch: 2026-09-20T22:00:03.000096Z

Period
93.91 min
Inclination
97.2853°
Eccentricity
0.0001568
Mean motion
15.33436344 rev/d
Perigee alt
464.5 km
Apogee alt
466.6 km
Semi-major
6,843.7 km
B*
-3.7604e-5
RAAN
326.4185°
Arg perigee
91.0015°
Mean anomaly
144.5218°
Rev number
564

§ Raw data

STARLINK-351861 65611U 25207V   26263.91670139 -.00001289  00000+0 -37604-4 0  99952 65611  97.2853 326.4185 0001568  91.0015 144.5218 15.33436344  5646

JSON: /api/v1/satellites/65611 · /tle

For live sub-satellite position, see the globe view (requires WebGL).

§ Visibility from observer

Set your observer location to see the next 7 days of passes ≥ 10°. The values pass through the URL so the page stays shareable.

No JS? Fill the form by hand. The geolocation button needs JavaScript.